sat.trackr.live / text

‹ back to catalog

STARLINK-31274

NORAD 59078 · 2024-041E

PAYLOAD ACTIVE UNKNOWN

§ Identity

Operator
Country
US
Launch date
2024-02-29
Launch site
AFETR
Launch vehicle
Mass (kg)
RCS (m²)

Purposes: comms

External: N2YO · Heavens-Above · Gunter

§ Orbital elements

Epoch: 2026-05-24T18:05:25.018656Z

Period
94.27 min
Inclination
42.9979°
Eccentricity
0.0001313
Mean motion
15.27594906 rev/d
Perigee alt
482.1 km
Apogee alt
483.9 km
Semi-major
6,861.1 km
B*
3.7023e-4
RAAN
241.2086°
Arg perigee
270.8712°
Mean anomaly
89.1989°
Rev number
12,590

§ Raw data

STARLINK-312741 59078U 24041E   26144.75376179  .00009944  00000+0  37023-3 0  99952 59078  42.9979 241.2086 0001313 270.8712  89.1989 15.27594906125908

JSON: /api/v1/satellites/59078 · /tle

For live sub-satellite position, see the globe view (requires WebGL).

§ Visibility from observer

Set your observer location to see the next 7 days of passes ≥ 10°. The values pass through the URL so the page stays shareable.

No JS? Fill the form by hand. The geolocation button needs JavaScript.